"Pseudo-MPEC" for C9J6NY2

Created 2023 Sep 20 19:22:15 UT using Find_Orb

Click here for an explanation of pseudo-MPECs

 
 Astrometry: 
     C9J6NY2*1C2023 09 19.40377803 39 01.134+03 37 28.60   ~9JAM 21.17GVNEOCPG96
     C9J6NY2 1C2023 09 19.40895003 39 01.570+03 37 27.73   ~9JAM 21.31GVNEOCPG96
     C9J6NY2 1C2023 09 19.41412103 39 02.084+03 37 26.36   ~9JAM 21.37GVNEOCPG96
     C9J6NY2 1C2023 09 19.41930803 39 02.441+03 37 24.71   ~9JAM 21.45GVNEOCPG96
     C9J6NY2 KC2023 09 19.46094303 39 05.915+03 37 12.83   ~9JBM 21.51GVNEOCPV06
     C9J6NY2 KC2023 09 19.46211003 39 06.005+03 37 12.79   ~9JBM 21.42GVNEOCPV06
     C9J6NY2 KC2023 09 19.46327703 39 06.095+03 37 12.47   ~9JBM 21.88GVNEOCPV06
     C9J6NY2 KC2023 09 19.46444503 39 06.214+03 37 12.18   ~9JBM 22.21GVNEOCPV06
     C9J6NY2 1C2023 09 20.13400 03 40 04.09 +03 34 04.0    ~9K8b 20.7 VXNEOCP033
     C9J6NY2 1C2023 09 20.13758 03 40 04.38 +03 34 02.8    ~9K8b 20.7 VXNEOCP033
     C9J6NY2 1C2023 09 20.14117 03 40 04.69 +03 34 02.0    ~9K8b 20.7 VXNEOCP033
     C9J6NY2 KC2023 09 20(hB_Astrometry`otK/_@Vc(redacted;8,Wclick#D`O85.here858
     C9J6NY2 KC2023 09 20OCOrjforhdrW-X=Vexplanation,BeE=v/yho1E:qtR`][^f-(Uq858

Station data:
(033) Karl Schwarzschild Observatory, Tautenburg  (N50.980137 E11.711240)
   Germany.  Observer B. Stecklum. 1.34-m f/3 Schmidt + CCD.
(858) Tebbutt Observatory, Edgewood  (N35.093869 W106.220000)  US/New Mexico.
    Observer F. B. Zoltowski. 0.16-m refractor + CCD0.51-m Schmidt-Cassegrain
   + CCD.
(G96) Mt. Lemmon Survey  (N32.442751 W110.788720)  US/Arizona.  Observer E.
   J. Christensen. 1.5-m reflector + 10K CCD.
(V06) Catalina Sky Survey-Kuiper  (N32.416844 W110.732550)  US/Arizona.
   Observers T. A. Pruyne, B. M. Africano, E. J. Christensen, G. A. Farneth,
   D. C. Fuls, A. R. Gibbs, A. D. Grauer, H. Gröller, J. A. Johnson, R. A.
   Kowalski, S. M. Larson, G. J. Leonard, D. Rankin, R. L. Seaman, F. C.
   Shelly, K. W. Wierzchoś. 1.55-m reflector + CCD.

Orbital elements:  C9J6NY2
   Perihelion 2024 Jan 21.34788 +/- 52.7 TT =  8:20:56 (JD 2460330.84788)
Epoch 2023 Sep 20.0 TT = JDT 2460207.5   Earth MOID: 0.1085      AutoNEOCP
M 311.96384593 +/- 16               (J2000 ecliptic)
n   0.38943641 +/- 0.122            Peri.    8.69083 +/- 43
a   1.85714158 +/- 0.388            Node   107.66562 +/- 7
e   0.4127228 +/- 0.132             Incl.    7.95089 +/- 0.8
P   2.53/924.40d           H 19.52  G  0.15   U 11.3  SR
q 1.09065679 +/- 0.152    Q 2.62362636 +/- 1.84
From 13 observations 2023 Sept. 19-20 (23.2 hr); mean residual 0".41
Residuals in arcseconds: 
230919 G96  .50-  .17-    230919 V06  .08-  .11-    230920 033  .70+  .02-    
230919 G96  .42-  .36+    230919 V06  .18-  .11-    230920 858  1.0-  .08+    
230919 G96  .84+  .39+    230919 V06  .15+  .08-    230920 858  .45-  .18+    
230919 G96  .27-  .15+    230920 033  .66+  .04-    
230919 V06  .02+  .39-    230920 033  .54+  .23-    

Ephemerides (geocentric):
Date (UTC) HH   RA             Dec           delta  r     elong  mag " sig PA
---- --------  ------------   ------------  ------ ------ -----  --- --------
2023 09 20 19  03 41 00.609   +03 31 04.70  .81495 1.5943 122.1 21.5 5.27  68
2023 09 20 20  03 41 04.181   +03 30 52.67  .81447 1.5940 122.1 21.5 5.77  69
2023 09 20 21  03 41 07.751   +03 30 40.63  .81398 1.5938 122.1 21.5 6.30  71
2023 09 20 22  03 41 11.320   +03 30 28.56  .81350 1.5936 122.1 21.5 6.85  71
2023 09 20 23  03 41 14.888   +03 30 16.48  .81302 1.5933 122.2 21.5 7.42  72
2023 09 21 00  03 41 18.455   +03 30 04.37  .81253 1.5931 122.2 21.4 8.01  73
2023 09 21 01  03 41 22.020   +03 29 52.25  .81205 1.5928 122.2 21.4 8.63  74
2023 09 21 02  03 41 25.584   +03 29 40.10  .81157 1.5926 122.2 21.4 9.27  74
2023 09 21 03  03 41 29.147   +03 29 27.94  .81109 1.5924 122.3 21.4 9.93  75
2023 09 21 04  03 41 32.708   +03 29 15.76  .81060 1.5921 122.3 21.4 10.6  75
2023 09 21 05  03 41 36.269   +03 29 03.55  .81012 1.5919 122.3 21.4 11.3  76
2023 09 21 06  03 41 39.828   +03 28 51.33  .80964 1.5917 122.3 21.4 12.1  76
2023 09 21 07  03 41 43.385   +03 28 39.09  .80916 1.5914 122.3 21.4 12.8  76
2023 09 21 08  03 41 46.942   +03 28 26.82  .80868 1.5912 122.4 21.4 13.6  77
2023 09 21 09  03 41 50.497   +03 28 14.54  .80819 1.5909 122.4 21.4 14.4  77
2023 09 21 10  03 41 54.051   +03 28 02.24  .80771 1.5907 122.4 21.4 15.2  77
2023 09 21 11  03 41 57.604   +03 27 49.91  .80723 1.5905 122.4 21.4 16.1  77
2023 09 21 12  03 42 01.155   +03 27 37.57  .80675 1.5902 122.5 21.4 16.9  78
2023 09 21 13  03 42 04.706   +03 27 25.21  .80627 1.5900 122.5 21.4 17.8  78
2023 09 21 14  03 42 08.255   +03 27 12.83  .80579 1.5897 122.5 21.4 18.7  78
2023 09 21 15  03 42 11.802   +03 27 00.42  .80531 1.5895 122.5 21.4 19.7  78
2023 09 21 16  03 42 15.349   +03 26 48.00  .80483 1.5893 122.6 21.4 20.6  78
2023 09 21 17  03 42 18.894   +03 26 35.56  .80435 1.5890 122.6 21.4 21.6  79
2023 09 21 18  03 42 22.438   +03 26 23.10  .80387 1.5888 122.6 21.4 22.6  79
2023 09 21 19  03 42 25.980   +03 26 10.62  .80339 1.5886 122.6 21.4 23.6  79
2023 09 21 20  03 42 29.522   +03 25 58.12  .80291 1.5883 122.7 21.4 24.7  79
2023 09 21 21  03 42 33.062   +03 25 45.59  .80243 1.5881 122.7 21.4 25.7  79
2023 09 21 22  03 42 36.600   +03 25 33.05  .80195 1.5878 122.7 21.4 26.8  79
2023 09 21 23  03 42 40.138   +03 25 20.49  .80147 1.5876 122.7 21.4 27.9  79
2023 09 22 00  03 42 43.674   +03 25 07.91  .80099 1.5874 122.8 21.4 29.1  79
2023 09 22 01  03 42 47.209   +03 24 55.31  .80051 1.5871 122.8 21.4 30.2  79
2023 09 22 02  03 42 50.743   +03 24 42.69  .80003 1.5869 122.8 21.4 31.4  80
2023 09 22 03  03 42 54.275   +03 24 30.05  .79955 1.5867 122.8 21.4 32.6  80
2023 09 22 04  03 42 57.806   +03 24 17.39  .79908 1.5864 122.9 21.4 33.8  80
2023 09 22 05  03 43 01.336   +03 24 04.71  .79860 1.5862 122.9 21.4 35.1  80
2023 09 22 06  03 43 04.864   +03 23 52.01  .79812 1.5859 122.9 21.4 36.4  80
2023 09 22 07  03 43 08.392   +03 23 39.29  .79764 1.5857 122.9 21.4 37.6  80
2023 09 22 08  03 43 11.918   +03 23 26.55  .79716 1.5855 122.9 21.4 39.0  80
2023 09 22 09  03 43 15.442   +03 23 13.80  .79669 1.5852 123.0 21.4 40.3  80
2023 09 22 10  03 43 18.966   +03 23 01.02  .79621 1.5850 123.0 21.4 41.7  80
2023 09 22 11  03 43 22.488   +03 22 48.22  .79573 1.5848 123.0 21.4 43.0  80
2023 09 22 12  03 43 26.008   +03 22 35.40  .79525 1.5845 123.0 21.4 44.4  80
2023 09 22 13  03 43 29.528   +03 22 22.56  .79478 1.5843 123.1 21.4 45.9  80
2023 09 22 14  03 43 33.046   +03 22 09.70  .79430 1.5840 123.1 21.4 47.3  80
2023 09 22 15  03 43 36.563   +03 21 56.83  .79382 1.5838 123.1 21.4 48.8  80
2023 09 22 16  03 43 40.079   +03 21 43.93  .79335 1.5836 123.1 21.4 50.3  80
2023 09 22 17  03 43 43.593   +03 21 31.01  .79287 1.5833 123.2 21.4 51.8  80
2023 09 22 18  03 43 47.106   +03 21 18.07  .79240 1.5831 123.2 21.4 53.3  80